Year,Month,Day,Hour,Minute,Value (Times are PST for temperature in C)
2013,01,21,00,00,-4.60
2013,01,21,00,01,-4.60
2013,01,21,00,02,-4.60
2013,01,21,00,03,-4.60
2013,01,21,00,04,-4.50
2013,01,21,00,05,-4.50
2013,01,21,00,06,-4.50
2013,01,21,00,07,-4.50
2013,01,21,00,08,-4.50
2013,01,21,00,09,-4.40
2013,01,21,00,10,-4.40
2013,01,21,00,11,-4.40
2013,01,21,00,12,-4.40
2013,01,21,00,13,-4.30
2013,01,21,00,14,-4.30
2013,01,21,00,15,-4.30
2013,01,21,00,16,-4.30
2013,01,21,00,17,-4.30
2013,01,21,00,18,-4.30
2013,01,21,00,19,-4.30
2013,01,21,00,20,-4.20
2013,01,21,00,21,-4.20
2013,01,21,00,22,-4.20
2013,01,21,00,23,-4.20
2013,01,21,00,24,-4.20
2013,01,21,00,25,-4.10
2013,01,21,00,26,-4.10
2013,01,21,00,27,-4.10
2013,01,21,00,28,-4.10
2013,01,21,00,29,-4.00
2013,01,21,00,30,-4.00
2013,01,21,00,31,-3.90
2013,01,21,00,32,-3.90
2013,01,21,00,33,-3.80
2013,01,21,00,34,-3.70
2013,01,21,00,35,-3.70
2013,01,21,00,36,-3.70
2013,01,21,00,37,-3.60
2013,01,21,00,38,-3.60
2013,01,21,00,39,-3.60
2013,01,21,00,40,-3.60
2013,01,21,00,41,-3.60
2013,01,21,00,42,-3.60
2013,01,21,00,43,-3.60
2013,01,21,00,44,-3.60
2013,01,21,00,45,-3.60
2013,01,21,00,46,-3.60
2013,01,21,00,47,-3.60
2013,01,21,00,48,-3.60
2013,01,21,00,49,-3.60
2013,01,21,00,50,-3.60
2013,01,21,00,51,-3.60
2013,01,21,00,52,-3.60
2013,01,21,00,53,-3.60
2013,01,21,00,54,-3.60
2013,01,21,00,55,-3.60
2013,01,21,00,56,-3.50
2013,01,21,00,57,-3.50
2013,01,21,00,58,-3.40
2013,01,21,00,59,-3.40
2013,01,21,01,00,-3.30
2013,01,21,01,01,-3.30
2013,01,21,01,02,-3.20
2013,01,21,01,03,-3.10
2013,01,21,01,04,-3.00
2013,01,21,01,05,-2.90
2013,01,21,01,06,-2.80
2013,01,21,01,07,-2.70
2013,01,21,01,08,-2.60
2013,01,21,01,09,-2.60
2013,01,21,01,10,-2.50
2013,01,21,01,11,-2.40
2013,01,21,01,12,-2.30
2013,01,21,01,13,-2.30
2013,01,21,01,14,-2.20
2013,01,21,01,15,-2.10
2013,01,21,01,16,-2.00
2013,01,21,01,17,-1.90
2013,01,21,01,18,-1.70
2013,01,21,01,19,-1.70
2013,01,21,01,20,-1.60
2013,01,21,01,21,-1.60
2013,01,21,01,22,-1.60
2013,01,21,01,23,-1.70
2013,01,21,01,24,-1.70
2013,01,21,01,25,-1.80
2013,01,21,01,26,-1.80
2013,01,21,01,27,-1.90
2013,01,21,01,28,-1.90
2013,01,21,01,29,-2.00
2013,01,21,01,30,-2.00
2013,01,21,01,31,-2.10
2013,01,21,01,32,-2.10
2013,01,21,01,33,-2.10
2013,01,21,01,34,-2.20
2013,01,21,01,35,-2.20
2013,01,21,01,36,-2.30
2013,01,21,01,37,-2.30
2013,01,21,01,38,-2.40
2013,01,21,01,39,-2.50
2013,01,21,01,40,-2.50
2013,01,21,01,41,-2.50
2013,01,21,01,42,-2.50
2013,01,21,01,43,-2.50
2013,01,21,01,44,-2.60
2013,01,21,01,45,-2.60
2013,01,21,01,46,-2.60
2013,01,21,01,47,-2.60
2013,01,21,01,48,-2.60
2013,01,21,01,49,-2.60
2013,01,21,01,50,-2.60
2013,01,21,01,51,-2.70
2013,01,21,01,52,-2.70
2013,01,21,01,53,-2.70
2013,01,21,01,54,-2.70
2013,01,21,01,55,-2.70
2013,01,21,01,56,-2.70
2013,01,21,01,57,-2.70
2013,01,21,01,58,-2.70
2013,01,21,01,59,-2.70
2013,01,21,02,00,-2.70
2013,01,21,02,01,-2.70
2013,01,21,02,02,-2.70
2013,01,21,02,03,-2.70
2013,01,21,02,04,-2.70
2013,01,21,02,05,-2.80
2013,01,21,02,06,-2.80
2013,01,21,02,07,-2.80
2013,01,21,02,08,-2.90
2013,01,21,02,09,-2.90
2013,01,21,02,10,-3.00
2013,01,21,02,11,-3.10
2013,01,21,02,12,-3.10
2013,01,21,02,13,-3.10
2013,01,21,02,14,-3.20
2013,01,21,02,15,-3.30
2013,01,21,02,16,-3.40
2013,01,21,02,17,-3.40
2013,01,21,02,18,-3.50
2013,01,21,02,19,-3.60
2013,01,21,02,20,-3.80
2013,01,21,02,21,-4.00
2013,01,21,02,22,-4.10
2013,01,21,02,23,-4.30
2013,01,21,02,24,-4.30
2013,01,21,02,25,-4.40
2013,01,21,02,26,-4.40
2013,01,21,02,27,-4.50
2013,01,21,02,28,-4.50
2013,01,21,02,29,-4.60
2013,01,21,02,30,-4.70
2013,01,21,02,31,-4.80
2013,01,21,02,32,-4.90
2013,01,21,02,33,-4.90
2013,01,21,02,34,-5.00
2013,01,21,02,35,-5.10
2013,01,21,02,36,-5.10
2013,01,21,02,37,-5.20
2013,01,21,02,38,-5.20
2013,01,21,02,39,-5.30
2013,01,21,02,40,-5.30
2013,01,21,02,41,-5.40
2013,01,21,02,42,-5.40
2013,01,21,02,43,-5.40
2013,01,21,02,44,-5.50
2013,01,21,02,45,-5.50
2013,01,21,02,46,-5.60
2013,01,21,02,47,-5.70
2013,01,21,02,48,-5.70
2013,01,21,02,49,-5.70
2013,01,21,02,50,-5.70
2013,01,21,02,51,-5.70
2013,01,21,02,52,-5.60
2013,01,21,02,53,-5.60
2013,01,21,02,54,-5.50
2013,01,21,02,55,-5.50
2013,01,21,02,56,-5.50
2013,01,21,02,57,-5.40
2013,01,21,02,58,-5.40
2013,01,21,02,59,-5.40
2013,01,21,03,00,-5.30
2013,01,21,03,01,-5.30
2013,01,21,03,02,-5.20
2013,01,21,03,03,-5.20
2013,01,21,03,04,-5.20
2013,01,21,03,05,-5.20
2013,01,21,03,06,-5.10
2013,01,21,03,07,-5.10
2013,01,21,03,08,-5.00
2013,01,21,03,09,-5.00
2013,01,21,03,10,-4.90
2013,01,21,03,11,-4.90
2013,01,21,03,12,-4.80
2013,01,21,03,13,-4.80
2013,01,21,03,14,-4.80
2013,01,21,03,15,-4.70
2013,01,21,03,16,-4.70
2013,01,21,03,17,-4.60
2013,01,21,03,18,-4.60
2013,01,21,03,19,-4.50
2013,01,21,03,20,-4.40
2013,01,21,03,21,-4.40
2013,01,21,03,22,-4.30
2013,01,21,03,23,-4.30
2013,01,21,03,24,-4.30
2013,01,21,03,25,-4.30
2013,01,21,03,26,-4.30
2013,01,21,03,27,-4.30
2013,01,21,03,28,-4.30
2013,01,21,03,29,-4.30
2013,01,21,03,30,-4.20
2013,01,21,03,31,-4.20
2013,01,21,03,32,-4.20
2013,01,21,03,33,-4.20
2013,01,21,03,34,-4.10
2013,01,21,03,35,-4.10
2013,01,21,03,36,-4.10
2013,01,21,03,37,-4.10
2013,01,21,03,38,-4.10
2013,01,21,03,39,-4.10
2013,01,21,03,40,-4.10
2013,01,21,03,41,-4.10
2013,01,21,03,42,-4.10
2013,01,21,03,43,-4.10
2013,01,21,03,44,-4.00
2013,01,21,03,45,-4.00
2013,01,21,03,46,-4.00
2013,01,21,03,47,-4.00
2013,01,21,03,48,-4.00
2013,01,21,03,49,-4.00
2013,01,21,03,50,-4.00
2013,01,21,03,51,-4.00
2013,01,21,03,52,-4.00
2013,01,21,03,53,-4.00
2013,01,21,03,54,-4.00
2013,01,21,03,55,-4.00
2013,01,21,03,56,-4.00
2013,01,21,03,57,-4.00
2013,01,21,03,58,-4.00
2013,01,21,03,59,-4.00
2013,01,21,04,00,-4.00
2013,01,21,04,01,-4.10
2013,01,21,04,02,-4.10
2013,01,21,04,03,-4.10
2013,01,21,04,04,-4.10
2013,01,21,04,05,-4.10
2013,01,21,04,06,-4.10
2013,01,21,04,07,-4.10
2013,01,21,04,08,-4.10
2013,01,21,04,09,-4.20
2013,01,21,04,10,-4.20
2013,01,21,04,11,-4.10
2013,01,21,04,12,-4.10
2013,01,21,04,13,-4.10
2013,01,21,04,14,-4.10
2013,01,21,04,15,-4.10
2013,01,21,04,16,-4.10
2013,01,21,04,17,-4.10
2013,01,21,04,18,-4.10
2013,01,21,04,19,-4.00
2013,01,21,04,20,-4.00
2013,01,21,04,21,-4.00
2013,01,21,04,22,-4.00
2013,01,21,04,23,-4.00
2013,01,21,04,24,-4.00
2013,01,21,04,25,-4.00
2013,01,21,04,26,-4.00
2013,01,21,04,27,-4.10
2013,01,21,04,28,-4.10
2013,01,21,04,29,-4.10
2013,01,21,04,30,-4.20
2013,01,21,04,31,-4.20
2013,01,21,04,32,-4.20
2013,01,21,04,33,-4.20
2013,01,21,04,34,-4.20
2013,01,21,04,35,-4.30
2013,01,21,04,36,-4.30
2013,01,21,04,37,-4.30
2013,01,21,04,38,-4.30
2013,01,21,04,39,-4.30
2013,01,21,04,40,-4.40
2013,01,21,04,41,-4.40
2013,01,21,04,42,-4.50
2013,01,21,04,43,-4.60
2013,01,21,04,44,-4.60
2013,01,21,04,45,-4.70
2013,01,21,04,46,-4.80
2013,01,21,04,47,-4.80
2013,01,21,04,48,-4.90
2013,01,21,04,49,-5.00
2013,01,21,04,50,-5.10
2013,01,21,04,51,-5.20
2013,01,21,04,52,-5.30
2013,01,21,04,53,-5.40
2013,01,21,04,54,-5.40
2013,01,21,04,55,-5.40
2013,01,21,04,56,-5.50
2013,01,21,04,57,-5.50
2013,01,21,04,58,-5.60
2013,01,21,04,59,-5.70
2013,01,21,05,00,-5.70
2013,01,21,05,01,-5.70
2013,01,21,05,02,-5.80
2013,01,21,05,03,-5.80
2013,01,21,05,04,-5.90
2013,01,21,05,05,-6.00
2013,01,21,05,06,-6.10
2013,01,21,05,07,-6.20
2013,01,21,05,08,-6.30
2013,01,21,05,09,-6.40
2013,01,21,05,10,-6.50
2013,01,21,05,11,-6.60
2013,01,21,05,12,-6.70
2013,01,21,05,13,-6.90
2013,01,21,05,14,-7.00
2013,01,21,05,15,-7.00
2013,01,21,05,16,-7.10
2013,01,21,05,17,-7.20
2013,01,21,05,18,-7.20
2013,01,21,05,19,-7.30
2013,01,21,05,20,-7.40
2013,01,21,05,21,-7.50
2013,01,21,05,22,-7.60
2013,01,21,05,23,-7.70
2013,01,21,05,24,-7.80
2013,01,21,05,25,-7.90
2013,01,21,05,26,-7.90
2013,01,21,05,27,-8.00
2013,01,21,05,28,-8.10
2013,01,21,05,29,-8.20
2013,01,21,05,30,-8.30
2013,01,21,05,31,-8.50
2013,01,21,05,32,-8.60
2013,01,21,05,33,-8.60
2013,01,21,05,34,-8.80
2013,01,21,05,35,-8.80
2013,01,21,05,36,-8.90
2013,01,21,05,37,-8.90
2013,01,21,05,38,-8.90
2013,01,21,05,39,-9.00
2013,01,21,05,40,-9.00
2013,01,21,05,41,-9.10
2013,01,21,05,42,-9.10
2013,01,21,05,43,-9.20
2013,01,21,05,44,-9.30
2013,01,21,05,45,-9.40
2013,01,21,05,46,-9.40
2013,01,21,05,47,-9.40
2013,01,21,05,48,-9.40
2013,01,21,05,49,-9.50
2013,01,21,05,50,-9.50
2013,01,21,05,51,-9.50
2013,01,21,05,52,-9.50
2013,01,21,05,53,-9.50
2013,01,21,05,54,-9.50
2013,01,21,05,55,-9.40
2013,01,21,05,56,-9.40
2013,01,21,05,57,-9.30
2013,01,21,05,58,-9.20
2013,01,21,05,59,-9.20
2013,01,21,06,00,-9.00
2013,01,21,06,01,-8.90
2013,01,21,06,02,-8.80
2013,01,21,06,03,-8.70
2013,01,21,06,04,-8.50
2013,01,21,06,05,-8.40
2013,01,21,06,06,-8.20
2013,01,21,06,07,-8.10
2013,01,21,06,08,-8.00
2013,01,21,06,09,-7.80
2013,01,21,06,10,-7.70
2013,01,21,06,11,-7.60
2013,01,21,06,12,-7.50
2013,01,21,06,13,-7.50
2013,01,21,06,14,-7.30
2013,01,21,06,15,-7.30
2013,01,21,06,16,-7.20
2013,01,21,06,17,-7.10
2013,01,21,06,18,-7.00
2013,01,21,06,19,-7.00
2013,01,21,06,20,-6.90
2013,01,21,06,21,-6.80
2013,01,21,06,22,-6.70
2013,01,21,06,23,-6.70
2013,01,21,06,24,-6.60
2013,01,21,06,25,-6.60
2013,01,21,06,26,-6.50
2013,01,21,06,27,-6.40
2013,01,21,06,28,-6.40
2013,01,21,06,29,-6.30
2013,01,21,06,30,-6.30
2013,01,21,06,31,-6.20
2013,01,21,06,32,-6.20
2013,01,21,06,33,-6.20
2013,01,21,06,34,-6.10
2013,01,21,06,35,-6.10
2013,01,21,06,36,-6.10
2013,01,21,06,37,-6.00
2013,01,21,06,38,-6.00
2013,01,21,06,39,-5.90
2013,01,21,06,40,-5.90
2013,01,21,06,41,-5.90
2013,01,21,06,42,-5.90
2013,01,21,06,43,-5.90
2013,01,21,06,44,-5.80
2013,01,21,06,45,-5.80
2013,01,21,06,46,-5.80
2013,01,21,06,47,-5.80
2013,01,21,06,48,-5.70
2013,01,21,06,49,-5.70
2013,01,21,06,50,-5.70
2013,01,21,06,51,-5.70
2013,01,21,06,52,-5.60
2013,01,21,06,53,-5.60
2013,01,21,06,54,-5.60
2013,01,21,06,55,-5.60
2013,01,21,06,56,-5.50
2013,01,21,06,57,-5.50
2013,01,21,06,58,-5.50
2013,01,21,06,59,-5.50
2013,01,21,07,00,-5.50
2013,01,21,07,01,-5.40
2013,01,21,07,02,-5.40
2013,01,21,07,03,-5.40
2013,01,21,07,04,-5.40
2013,01,21,07,05,-5.40
2013,01,21,07,06,-5.30
2013,01,21,07,07,-5.30
2013,01,21,07,08,-5.30
2013,01,21,07,09,-5.30
2013,01,21,07,10,-5.30
2013,01,21,07,11,-5.30
2013,01,21,07,12,-5.30
2013,01,21,07,13,-5.30
2013,01,21,07,14,-5.30
2013,01,21,07,15,-5.30
2013,01,21,07,16,-5.40
2013,01,21,07,17,-5.40
2013,01,21,07,18,-5.40
2013,01,21,07,19,-5.40
2013,01,21,07,20,-5.50
2013,01,21,07,21,-5.50
2013,01,21,07,22,-5.60
2013,01,21,07,23,-5.60
2013,01,21,07,24,-5.70
2013,01,21,07,25,-5.70
2013,01,21,07,26,-5.70
2013,01,21,07,27,-5.80
2013,01,21,07,28,-5.80
2013,01,21,07,29,-5.80
2013,01,21,07,30,-5.80
2013,01,21,07,31,-5.80
2013,01,21,07,32,-5.80
2013,01,21,07,33,-5.70
2013,01,21,07,34,-5.70
2013,01,21,07,35,-5.70
2013,01,21,07,36,-5.70
2013,01,21,07,37,-5.70
2013,01,21,07,38,-5.70
2013,01,21,07,39,-5.70
2013,01,21,07,40,-5.70
2013,01,21,07,41,-5.70
2013,01,21,07,42,-5.70
2013,01,21,07,43,-5.70
2013,01,21,07,44,-5.70
2013,01,21,07,45,-5.70
2013,01,21,07,46,-5.70
2013,01,21,07,47,-5.70
2013,01,21,07,48,-5.60
2013,01,21,07,49,-5.60
2013,01,21,07,50,-5.60
2013,01,21,07,51,-5.60
2013,01,21,07,52,-5.50
2013,01,21,07,53,-5.50
2013,01,21,07,54,-5.50
2013,01,21,07,55,-5.40
2013,01,21,07,56,-5.30
2013,01,21,07,57,-5.20
2013,01,21,07,58,-5.20
2013,01,21,07,59,-5.10
2013,01,21,08,00,-5.10
2013,01,21,08,01,-5.00
2013,01,21,08,02,-5.00
2013,01,21,08,03,-4.90
2013,01,21,08,04,-4.90
2013,01,21,08,05,-4.80
2013,01,21,08,06,-4.80
2013,01,21,08,07,-4.80
2013,01,21,08,08,-4.70
2013,01,21,08,09,-4.60
2013,01,21,08,10,-4.60
2013,01,21,08,11,-4.50
2013,01,21,08,12,-4.40
2013,01,21,08,13,-4.30
2013,01,21,08,14,-4.20
2013,01,21,08,15,-4.20
2013,01,21,08,16,-4.10
2013,01,21,08,17,-4.10
2013,01,21,08,18,-4.10
2013,01,21,08,19,-4.00
2013,01,21,08,20,-4.00
2013,01,21,08,21,-4.00
2013,01,21,08,22,-4.00
2013,01,21,08,23,-4.00
2013,01,21,08,24,-4.00
2013,01,21,08,25,-4.00
2013,01,21,08,26,-4.00
2013,01,21,08,27,-4.00
2013,01,21,08,28,-4.00
2013,01,21,08,29,-4.00
2013,01,21,08,30,-4.00
2013,01,21,08,31,-3.90
2013,01,21,08,32,-3.90
2013,01,21,08,33,-3.80
2013,01,21,08,34,-3.80
2013,01,21,08,35,-3.70
2013,01,21,08,36,-3.70
2013,01,21,08,37,-3.60
2013,01,21,08,38,-3.60
2013,01,21,08,39,-3.60
2013,01,21,08,40,-3.50
2013,01,21,08,41,-3.40
2013,01,21,08,42,-3.40
2013,01,21,08,43,-3.40
2013,01,21,08,44,-3.40
2013,01,21,08,45,-3.30
2013,01,21,08,46,-3.30
2013,01,21,08,47,-3.30
2013,01,21,08,48,-3.30
2013,01,21,08,49,-3.20
2013,01,21,08,50,-3.20
2013,01,21,08,51,-3.20
2013,01,21,08,52,-3.20
2013,01,21,08,53,-3.20
2013,01,21,08,54,-3.20
2013,01,21,08,55,-3.20
2013,01,21,08,56,-3.30
2013,01,21,08,57,-3.20
2013,01,21,08,58,-3.30
2013,01,21,08,59,-3.30
2013,01,21,09,00,-3.30
2013,01,21,09,01,-3.30
2013,01,21,09,02,-3.30
2013,01,21,09,03,-3.30
2013,01,21,09,04,-3.40
2013,01,21,09,05,-3.40
2013,01,21,09,06,-3.30
2013,01,21,09,07,-3.30
2013,01,21,09,08,-3.40
2013,01,21,09,09,-3.40
2013,01,21,09,10,-3.40
2013,01,21,09,11,-3.50
2013,01,21,09,12,-3.50
2013,01,21,09,13,-3.50
2013,01,21,09,14,-3.50
2013,01,21,09,15,-3.50
2013,01,21,09,16,-3.60
2013,01,21,09,17,-3.50
2013,01,21,09,18,-3.50
2013,01,21,09,19,-3.50
2013,01,21,09,20,-3.50
2013,01,21,09,21,-3.50
2013,01,21,09,22,-3.50
2013,01,21,09,23,-3.40
2013,01,21,09,24,-3.40
2013,01,21,09,25,-3.40
2013,01,21,09,26,-3.40
2013,01,21,09,27,-3.40
2013,01,21,09,28,-3.40
2013,01,21,09,29,-3.40
2013,01,21,09,30,-3.40
2013,01,21,09,31,-3.40
2013,01,21,09,32,-3.30
2013,01,21,09,33,-3.30
2013,01,21,09,34,-3.30
2013,01,21,09,35,-3.30
2013,01,21,09,36,-3.30
2013,01,21,09,37,-3.30
2013,01,21,09,38,-3.30
2013,01,21,09,39,-3.30
2013,01,21,09,40,-3.30
2013,01,21,09,41,-3.30
2013,01,21,09,42,-3.30
2013,01,21,09,43,-3.30
2013,01,21,09,44,-3.30
2013,01,21,09,45,-3.30
2013,01,21,09,46,-3.30
2013,01,21,09,47,-3.40
2013,01,21,09,48,-3.40
2013,01,21,09,49,-3.40
2013,01,21,09,50,-3.40
2013,01,21,09,51,-3.40
2013,01,21,09,52,-3.40
2013,01,21,09,53,-3.50
2013,01,21,09,54,-3.50
2013,01,21,09,55,-3.50
2013,01,21,09,56,-3.50
2013,01,21,09,57,-3.50
2013,01,21,09,58,-3.60
2013,01,21,09,59,-3.60
2013,01,21,10,00,-3.60
2013,01,21,10,01,-3.60
2013,01,21,10,02,-3.60
2013,01,21,10,03,-3.60
2013,01,21,10,04,-3.60
2013,01,21,10,05,-3.60
2013,01,21,10,06,-3.60
2013,01,21,10,07,-3.60
2013,01,21,10,08,-3.60
2013,01,21,10,09,-3.60
2013,01,21,10,10,-3.60
2013,01,21,10,11,-3.60
2013,01,21,10,12,-3.60
2013,01,21,10,13,-3.60
2013,01,21,10,14,-3.70
2013,01,21,10,15,-3.70
2013,01,21,10,16,-3.70
2013,01,21,10,17,-3.70
2013,01,21,10,18,-3.70
2013,01,21,10,19,-3.70
2013,01,21,10,20,-3.70
2013,01,21,10,21,-3.70
2013,01,21,10,22,-3.70
2013,01,21,10,23,-3.70
2013,01,21,10,24,-3.70
2013,01,21,10,25,-3.70
2013,01,21,10,26,-3.70
2013,01,21,10,27,-3.70
2013,01,21,10,28,-3.70
2013,01,21,10,29,-3.70
2013,01,21,10,30,-3.70
2013,01,21,10,31,-3.70
2013,01,21,10,32,-3.70
2013,01,21,10,33,-3.70
2013,01,21,10,34,-3.70
2013,01,21,10,35,-3.70
2013,01,21,10,36,-3.70
2013,01,21,10,37,-3.70
2013,01,21,10,38,-3.70
2013,01,21,10,39,-3.70
2013,01,21,10,40,-3.70
2013,01,21,10,41,-3.60
2013,01,21,10,42,-3.60
2013,01,21,10,43,-3.60
2013,01,21,10,44,-3.60
2013,01,21,10,45,-3.60
2013,01,21,10,46,-3.60
2013,01,21,10,47,-3.60
2013,01,21,10,48,-3.60
2013,01,21,10,49,-3.60
2013,01,21,10,50,-3.50
2013,01,21,10,51,-3.50
2013,01,21,10,52,-3.50
2013,01,21,10,53,-3.50
2013,01,21,10,54,-3.50
2013,01,21,10,55,-3.50
2013,01,21,10,56,-3.40
2013,01,21,10,57,-3.40
2013,01,21,10,58,-3.40
2013,01,21,10,59,-3.40
2013,01,21,11,00,-3.40
2013,01,21,11,01,-3.30
2013,01,21,11,02,-3.30
2013,01,21,11,03,-3.30
2013,01,21,11,04,-3.20
2013,01,21,11,05,-3.20
2013,01,21,11,06,-3.20
2013,01,21,11,07,-3.20
2013,01,21,11,08,-3.20
2013,01,21,11,09,-3.10
2013,01,21,11,10,-3.10
2013,01,21,11,11,-3.10
2013,01,21,11,12,-3.10
2013,01,21,11,13,-3.10
2013,01,21,11,14,-3.00
2013,01,21,11,15,-3.00
2013,01,21,11,16,-3.00
2013,01,21,11,17,-3.00
2013,01,21,11,18,-3.00
2013,01,21,11,19,-3.00
2013,01,21,11,20,-3.00
2013,01,21,11,21,-3.00
2013,01,21,11,22,-2.90
2013,01,21,11,23,-2.90
2013,01,21,11,24,-2.90
2013,01,21,11,25,-2.90
2013,01,21,11,26,-2.90
2013,01,21,11,27,-2.80
2013,01,21,11,28,-2.80
2013,01,21,11,29,-2.80
2013,01,21,11,30,-2.80
2013,01,21,11,31,-2.80
2013,01,21,11,32,-2.80
2013,01,21,11,33,-2.80
2013,01,21,11,34,-2.70
2013,01,21,11,35,-2.70
2013,01,21,11,36,-2.70
2013,01,21,11,37,-2.70
2013,01,21,11,38,-2.70
2013,01,21,11,39,-2.60
2013,01,21,11,40,-2.60
2013,01,21,11,41,-2.60
2013,01,21,11,42,-2.60
2013,01,21,11,43,-2.60
2013,01,21,11,44,-2.50
2013,01,21,11,45,-2.50
2013,01,21,11,46,-2.50
2013,01,21,11,47,-2.50
2013,01,21,11,48,-2.40
2013,01,21,11,49,-2.40
2013,01,21,11,50,-2.40
2013,01,21,11,51,-2.30
2013,01,21,11,52,-2.30
2013,01,21,11,53,-2.30
2013,01,21,11,54,-2.30
2013,01,21,11,55,-2.30
2013,01,21,11,56,-2.30
2013,01,21,11,57,-2.20
2013,01,21,11,58,-2.20
2013,01,21,11,59,-2.20
2013,01,21,12,00,-2.20
2013,01,21,12,01,-2.20
2013,01,21,12,02,-2.20
2013,01,21,12,03,-2.20
2013,01,21,12,04,-2.20
2013,01,21,12,05,-2.20
2013,01,21,12,06,-2.20
2013,01,21,12,07,-2.20
2013,01,21,12,08,-2.20
2013,01,21,12,09,-2.20
2013,01,21,12,10,-2.20
2013,01,21,12,11,-2.20
2013,01,21,12,12,-2.20
2013,01,21,12,13,-2.20
2013,01,21,12,14,-2.20
2013,01,21,12,15,-2.10
2013,01,21,12,16,-2.10
2013,01,21,12,17,-2.10
2013,01,21,12,18,-2.10
2013,01,21,12,19,-2.10
2013,01,21,12,20,-2.00
2013,01,21,12,21,-2.00
2013,01,21,12,22,-2.00
2013,01,21,12,23,-2.00
2013,01,21,12,24,-1.90
2013,01,21,12,25,-1.90
2013,01,21,12,26,-1.90
2013,01,21,12,27,-1.90
2013,01,21,12,28,-1.80
2013,01,21,12,29,-1.80
2013,01,21,12,30,-1.80
2013,01,21,12,31,-1.80
2013,01,21,12,32,-1.80
2013,01,21,12,33,-1.70
2013,01,21,12,34,-1.70
2013,01,21,12,35,-1.70
2013,01,21,12,36,-1.70
2013,01,21,12,37,-1.70
2013,01,21,12,38,-1.60
2013,01,21,12,39,-1.60
2013,01,21,12,40,-1.60
2013,01,21,12,41,-1.60
2013,01,21,12,42,-1.60
2013,01,21,12,43,-1.50
2013,01,21,12,44,-1.50
2013,01,21,12,45,-1.50
2013,01,21,12,46,-1.50
2013,01,21,12,47,-1.50
2013,01,21,12,48,-1.40
2013,01,21,12,49,-1.40
2013,01,21,12,50,-1.40
2013,01,21,12,51,-1.40
2013,01,21,12,52,-1.40
2013,01,21,12,53,-1.30
2013,01,21,12,54,-1.30
2013,01,21,12,55,-1.30
2013,01,21,12,56,-1.30
2013,01,21,12,57,-1.20
2013,01,21,12,58,-1.20
2013,01,21,12,59,-1.20
2013,01,21,13,00,-1.20
2013,01,21,13,01,-1.20
2013,01,21,13,02,-1.10
2013,01,21,13,03,-1.10
2013,01,21,13,04,-1.10
2013,01,21,13,05,-1.10
2013,01,21,13,06,-1.00
2013,01,21,13,07,-1.00
2013,01,21,13,08,-1.00
2013,01,21,13,09,-1.00
2013,01,21,13,10,-1.00
2013,01,21,13,11,-1.00
2013,01,21,13,12,-1.00
2013,01,21,13,13,-1.00
2013,01,21,13,14,-1.00
2013,01,21,13,15,-1.00
2013,01,21,13,16,-1.00
2013,01,21,13,17,-1.00
2013,01,21,13,18,-1.00
2013,01,21,13,19,-1.00
2013,01,21,13,20,-1.00
2013,01,21,13,21,-1.00
2013,01,21,13,22,-1.00
2013,01,21,13,23,-1.00
2013,01,21,13,24,-1.00
2013,01,21,13,25,-1.00
2013,01,21,13,26,-0.90
2013,01,21,13,27,-0.90
2013,01,21,13,28,-0.90
2013,01,21,13,29,-0.90
2013,01,21,13,30,-0.90
2013,01,21,13,31,-0.80
2013,01,21,13,32,-0.80
2013,01,21,13,33,-0.80
2013,01,21,13,34,-0.80
2013,01,21,13,35,-0.80
2013,01,21,13,36,-0.80
2013,01,21,13,37,-0.80
2013,01,21,13,38,-0.80
2013,01,21,13,39,-0.80
2013,01,21,13,40,-0.70
2013,01,21,13,41,-0.70
2013,01,21,13,42,-0.70
2013,01,21,13,43,-0.70
2013,01,21,13,44,-0.70
2013,01,21,13,45,-0.70
2013,01,21,13,46,-0.70
2013,01,21,13,47,-0.70
2013,01,21,13,48,-0.70
2013,01,21,13,49,-0.70
2013,01,21,13,50,-0.70
2013,01,21,13,51,-0.70
2013,01,21,13,52,-0.70
2013,01,21,13,53,-0.60
2013,01,21,13,54,-0.60
2013,01,21,13,55,-0.60
2013,01,21,13,56,-0.60
2013,01,21,13,57,-0.60
2013,01,21,13,58,-0.60
2013,01,21,13,59,-0.60
2013,01,21,14,00,-0.50
2013,01,21,14,01,-0.60
2013,01,21,14,02,-0.50
2013,01,21,14,03,-0.50
2013,01,21,14,04,-0.60
2013,01,21,14,05,-0.60
2013,01,21,14,06,-0.60
2013,01,21,14,07,-0.60
2013,01,21,14,08,-0.60
2013,01,21,14,09,-0.60
2013,01,21,14,10,-0.60
2013,01,21,14,11,-0.60
2013,01,21,14,12,-0.60
2013,01,21,14,13,-0.60
2013,01,21,14,14,-0.60
2013,01,21,14,15,-0.60
2013,01,21,14,16,-0.60
2013,01,21,14,17,-0.60
2013,01,21,14,18,-0.60
2013,01,21,14,19,-0.60
2013,01,21,14,20,-0.70
2013,01,21,14,21,-0.70
2013,01,21,14,22,-0.70
2013,01,21,14,23,-0.70
2013,01,21,14,24,-0.70
2013,01,21,14,25,-0.70
2013,01,21,14,26,-0.70
2013,01,21,14,27,-0.70
2013,01,21,14,28,-0.70
2013,01,21,14,29,-0.70
2013,01,21,14,30,-0.70
2013,01,21,14,31,-0.70
2013,01,21,14,32,-0.60
2013,01,21,14,33,-0.60
2013,01,21,14,34,-0.60
2013,01,21,14,35,-0.60
2013,01,21,14,36,-0.60
2013,01,21,14,37,-0.60
2013,01,21,14,38,-0.50
2013,01,21,14,39,-0.50
2013,01,21,14,40,-0.50
2013,01,21,14,41,-0.50
2013,01,21,14,42,-0.50
2013,01,21,14,43,-0.50
2013,01,21,14,44,-0.50
2013,01,21,14,45,-0.50
2013,01,21,14,46,-0.50
2013,01,21,14,47,-0.50
2013,01,21,14,48,-0.40
2013,01,21,14,49,-0.40
2013,01,21,14,50,-0.40
2013,01,21,14,51,-0.40
2013,01,21,14,52,-0.40
2013,01,21,14,53,-0.30
2013,01,21,14,54,-0.30
2013,01,21,14,55,-0.30
2013,01,21,14,56,-0.30
2013,01,21,14,57,-0.30
2013,01,21,14,58,-0.40
2013,01,21,14,59,-0.30
2013,01,21,15,00,-0.40
2013,01,21,15,01,-0.40
2013,01,21,15,02,-0.40
2013,01,21,15,03,-0.40
2013,01,21,15,04,-0.40
2013,01,21,15,05,-0.40
2013,01,21,15,06,-0.40
2013,01,21,15,07,-0.30
2013,01,21,15,08,-0.30
2013,01,21,15,09,-0.30
2013,01,21,15,10,-0.30
2013,01,21,15,11,-0.30
2013,01,21,15,12,-0.30
2013,01,21,15,13,-0.30
2013,01,21,15,14,-0.30
2013,01,21,15,15,-0.30
2013,01,21,15,16,-0.30
2013,01,21,15,17,-0.30
2013,01,21,15,18,-0.20
2013,01,21,15,19,-0.20
2013,01,21,15,20,-0.20
2013,01,21,15,21,-0.20
2013,01,21,15,22,-0.20
2013,01,21,15,23,-0.20
2013,01,21,15,24,-0.20
2013,01,21,15,25,-0.20
2013,01,21,15,26,-0.20
2013,01,21,15,27,-0.20
2013,01,21,15,28,-0.20
2013,01,21,15,29,-0.20
2013,01,21,15,30,-0.20
2013,01,21,15,31,-0.10
2013,01,21,15,32,-0.10
2013,01,21,15,33,-0.10
2013,01,21,15,34,-0.10
2013,01,21,15,35,-0.10
2013,01,21,15,36,-6.70
2013,01,21,15,37,-17.80
2013,01,21,15,38,-17.80
2013,01,21,15,39,-17.80
2013,01,21,15,40,-17.80
2013,01,21,15,41,-17.80
2013,01,21,15,42,-17.80
2013,01,21,15,43,-17.70
2013,01,21,15,44,-17.70
2013,01,21,15,45,-17.70
2013,01,21,15,46,-17.70
2013,01,21,15,47,-17.70
2013,01,21,15,48,-17.70
2013,01,21,15,49,-17.70
2013,01,21,15,50,-17.70
2013,01,21,15,51,-17.70
2013,01,21,15,52,-17.70
2013,01,21,15,53,-17.60
2013,01,21,15,54,-17.60
2013,01,21,15,55,-17.60
2013,01,21,15,56,-17.60
2013,01,21,15,57,-17.60
2013,01,21,15,58,-17.60
2013,01,21,15,59,-17.60
2013,01,21,16,00,-17.60
2013,01,21,16,01,-17.60
2013,01,21,16,02,-17.60
2013,01,21,16,03,-17.60
2013,01,21,16,04,-17.60
2013,01,21,16,05,-17.60
2013,01,21,16,06,-17.60
2013,01,21,16,07,-17.60
2013,01,21,16,08,-17.60
2013,01,21,16,09,-17.60
2013,01,21,16,10,-17.60
2013,01,21,16,11,-17.60
2013,01,21,16,12,-17.60
2013,01,21,16,13,-17.60
2013,01,21,16,14,-17.60
2013,01,21,16,15,-17.60
2013,01,21,16,16,-17.60
2013,01,21,16,17,-17.60
2013,01,21,16,18,-17.60
2013,01,21,16,19,-17.60
2013,01,21,16,20,-17.60
2013,01,21,16,21,-17.60
2013,01,21,16,22,-17.70
2013,01,21,16,23,-17.70
2013,01,21,16,24,-17.60
2013,01,21,16,25,-17.70
2013,01,21,16,26,-17.70
2013,01,21,16,27,-17.70
2013,01,21,16,28,-17.70
2013,01,21,16,29,-17.70
2013,01,21,16,30,-17.70
2013,01,21,16,31,-17.70
2013,01,21,16,32,-17.70
2013,01,21,16,33,-17.70
2013,01,21,16,34,-17.70
2013,01,21,16,35,-17.70
2013,01,21,16,36,-17.60
2013,01,21,16,37,-17.70
2013,01,21,16,38,-17.60
2013,01,21,16,39,-17.60
2013,01,21,16,40,-17.60
2013,01,21,16,41,-17.60
2013,01,21,16,42,-17.60
2013,01,21,16,43,-17.60
2013,01,21,16,44,-17.60
2013,01,21,16,45,-17.60
2013,01,21,16,46,-17.60
2013,01,21,16,47,-17.60
2013,01,21,16,48,-17.60
2013,01,21,16,49,-17.60
2013,01,21,16,50,-17.60
2013,01,21,16,51,-17.60
2013,01,21,16,52,-17.60
2013,01,21,16,53,-17.60
2013,01,21,16,54,-17.60
2013,01,21,16,55,-17.60
2013,01,21,16,56,-17.60
2013,01,21,16,57,-17.60
2013,01,21,16,58,-17.60
2013,01,21,16,59,-17.60
2013,01,21,17,00,-17.60
2013,01,21,17,01,-17.60
2013,01,21,17,02,-17.60
2013,01,21,17,03,-17.60
2013,01,21,17,04,-17.60
2013,01,21,17,05,-17.60
2013,01,21,17,06,-17.60
2013,01,21,17,07,-17.60
2013,01,21,17,08,-17.60
2013,01,21,17,09,-17.60
2013,01,21,17,10,-17.60
2013,01,21,17,11,-17.60
2013,01,21,17,12,-17.60
2013,01,21,17,13,-17.60
2013,01,21,17,14,-17.60
2013,01,21,17,15,-17.60